Showing default

CONNECTA IOT-3, 60475

Orbit data source: Space-Track

CONNECTA IOT-3, 60475 is a payload satellite owned by Plan-S (TR) in SSO that was launched on Fri, 16 Aug 2024 UTC via an FALCON 9 launch vehicle from the Air Force Western Test Range (AFWTR). Payload-class satellites include a variety of spacecraft equipped with specific instruments for various scientific and technological missions. These include communications satellites like Starlink; space stations such as the ISS; scientific satellites like the Hubble; Earth observation satellites from companies like Planet Labs, Umbra, and HawkEye 360; GPS; miniature CubeSats for education and research; and military/defense satellites.

Loading next visibility...
Identifier
60475, 2024-149H
Orbit
SSO
Country
Flag of UnknownUnknown / TURK
Related business
Manufacturer
Plan-S
Mission
Operational Commercial Communications
Bus & Motor
CUBESAT 6U, Unknown motor
Mass
10 kg wet, 10 kg dry
Launch date (UTC)
2024-08-16 (1 year ago)
Launch vehicle
FALCON 9
Launch site
Air Force Western Test Range (AFWTR)
Object type
Payload
Rocket body
Debris
Shape & HBR
Box, 2.2 m
Radar Cross Section
0.080 m², Medium (>0.1 m² and < 1m²)

Expand to show TLE details & history
Last TLE update: 2 days ago

TLE from 2 days ago
0 CONNECTA IOT-3
1 60475U 24149H   25286.17382945  .00006605  00000-0  28760-3 0  9997
2 60475  97.3959   1.4069 0005088  57.1955 302.9771 15.22539773 64215
Epoch: 2025-10-13T04:10Z
TLE epoch observation values (Epoch: 2025-10-13T04:10:18.864Z)
Latitude
-0.00002°
Longitude
-83.1521°
Altitude
499.374 km
Speed
7.616 km/s
True Right ascension
00h 05m 37s
True Declination
0° 00' 00"
Sunlit
Object was in full shadow at epoch
Visualization orbit readout
Latitude
Unknown
Longitude
Unknown
Altitude
Unknown
Speed
Unknown
Apparent Right ascension
Unknown
Apparent Declination
Unknown
Sunlit
N/A
Visualization observer readout
Local Sidereal Time
14:42:47
Azimuth
Unknown
Elevation
Unknown
Doppler factor
Unknown
Orbital elements
Apogee altitude
498.642 km
Perigee altitude
491.648 km
Semi-major axis
6,873.282 km
Eccentricity
0.00051
Inclination
97.3959°
RAAN
1.4069°
Arg. of periapsis
57.1955°
True anomaly
302.92817°
Mean anomaly
302.9771°
Eccentric anomaly
302.95264°
Mean motion
3.80888 °/min
Orbital period
94.52 mins
BSTAR
0.0002876
Loading maneuver chart data...
Computing Atmospheric mass density...
Loading historical data...
Loading historical data...
Loading historical data...
Loading historical data...
Loading historical data...
Loading historical data...
Loading historical data...

Documentation

Showing up to 5 results
|